Location: Home
(42.5358°N, 72.7383°W)
Time: 18:43:51
(UTC-04:00)

Vanguard 1 - Visible Passes

Search period start: 27 May 2022 00:00
Search period end: 06 June 2022 00:00
Orbit: 649 x 3833 km, 34.3° (Epoch: 27 May)

Date Brightness Start Highest point End Pass type
(mag) Time Alt. Az. Time Alt. Az. Time Alt. Az.
27 May 12.1 01:17:38 37° S 01:22:41 47° SSE 01:42:07 10° E visible
27 May 12.7 03:30:20 10° WSW 03:46:28 67° S 04:09:44 10° E visible
27 May 12.7 23:23:48 22° SE 23:23:48 22° SE 23:34:03 10° E visible
28 May 12.2 01:36:25 33° SSW 01:43:15 54° SSE 02:03:36 10° E visible
28 May 12.7 03:51:03 10° WSW 04:07:34 67° S 04:30:54 10° ESE visible
28 May 12.3 23:42:32 29° SE 23:42:43 29° SE 23:56:16 10° E visible
29 May 12.3 01:55:09 27° SW 02:03:58 59° SSE 02:25:02 10° E visible
29 May 12.8 04:11:50 10° W 04:28:42 66° S 04:51:58 10° ESE visible
30 May 12.0 00:01:13 35° SSE 00:02:51 36° SE 00:18:07 10° E visible
30 May 12.3 02:13:49 18° WSW 02:24:48 63° SSE 02:46:25 10° E visible
30 May 12.8 04:32:41 10° W 04:49:48 63° SSW 05:12:54 10° ESE visible
30 May 12.9 22:07:14 11° ESE 22:07:14 11° ESE 22:08:15 10° ESE visible
31 May 11.8 00:19:49 38° S 00:23:08 44° SSE 00:39:44 10° E visible
31 May 12.3 02:32:25 10° WSW 02:45:44 65° S 03:07:45 10° E visible
31 May 12.5 22:25:43 18° ESE 22:25:43 18° ESE 22:31:53 10° E visible
01 Jun 11.9 00:38:18 33° SSW 00:43:36 50° SSE 01:01:14 10° E visible
01 Jun 12.4 02:52:59 10° WSW 03:06:45 65° S 03:29:00 10° ESE visible
01 Jun 12.0 22:43:59 25° SE 22:43:59 25° SE 22:54:13 10° E visible
02 Jun 11.9 00:56:32 23° SW 01:04:14 56° SSE 01:22:40 10° E visible
02 Jun 12.4 03:13:41 10° W 03:27:47 64° S 03:50:08 10° ESE visible
02 Jun 11.7 23:01:47 29° SSE 23:04:02 32° SE 23:16:02 10° E visible
03 Jun 11.9 01:14:22 10° WSW 01:24:58 60° SSE 01:44:03 10° E visible
03 Jun 12.5 03:34:26 10° W 03:48:49 61° S 04:11:08 10° ESE visible
03 Jun 11.6 23:16:35 10° SW 23:24:18 39° SSE 23:37:37 10° E visible
04 Jun 11.9 01:34:53 10° WSW 01:45:48 62° S 02:05:24 10° E visible
04 Jun 12.6 03:55:15 10° W 04:09:50 57° SSW 04:31:54 10° SE visible
04 Jun 12.0 21:22:06 10° SSE 21:25:43 14° SE 21:30:14 10° ESE visible
04 Jun 11.5 23:36:41 10° SW 23:44:42 46° SSE 23:59:04 10° E visible
05 Jun 12.0 01:55:27 10° WSW 02:06:42 63° S 02:26:40 10° ESE visible
05 Jun 12.7 04:16:07 10° W 04:30:49 51° SSW 04:52:26 10° SE visible
05 Jun 11.7 21:40:41 10° S 21:45:41 20° SE 21:52:49 10° E visible
